OPS 9347 (IDSCS 25)

导读

OPS 9347(又名IDSCS 25)是美国于1968年6月13日08:00发射的一颗军事通信卫星,属于初始国防卫星通信系统(IDSCS)系列,是该系列的第25颗卫星。该系列卫星是美国早期战略卫星通信网络的重要组成部分,为美军提供远程战略通信支持,标志着美国在冷战时期初步构建起天基军事通信体系,在早期太空军事通信发展中具备标志性意义。

Basic Information
目录编号:
3290
目录名称:
OPS 9347 (IDSCS 25)
国际标识:
1968-050G
轨道中心:
EARTH
卫星名称:
OPS 9347 (IDSCS 25)
卫星全名:
--
卫星状态:
在轨 (已飞行21215 天)
发射日期:
1968-06-13 UTC
国别 :
美国 (US)
星等 :
--
Orbit Information
数据来源 国际轨道数据
星历时间: 2026-07-13T22:47:16+0800
16小时前
查看轨道信息
半长轴: 40369.157km
偏心率: 0.0060735
轨道倾角: 7.025°
近地点辐角 137.992°
升交点赤经 53.845°
平近点角 182.448°
近地点: 33745.837km
远地点: 34236.203km
周期: 1345.347分钟
每日圈数: 1.070356
Detailed Information
使用方式:
暂无
2D Orbit Map
3D Orbit Map
Orbit Altitude Analysis Chart
Orbit Inclination Analysis Chart
Orbit Comprehensive Analysis Chart
View Comprehensive Chart